www.pogodaiklimat.ru

Погода и климат >> Архив погоды >> Россия >> Якутия >> Юрты


ПОГОДА в Юртах

  • Прогноз погоды в Юртах
  • Монитор погоды в Юртах
  • Климат города

АРХИВ ПОГОДЫ в Юртах

Время (UTC), дата Ветер
(напр.,м/с)
 
Видим.   Явления Облачность Т
(С)
Тd
(С)
f
(%)
Тe
(С)
Тes
(С)
Комфортность P
(гПа)
Po
(гПа)
Тmin
(С)
Tmax
(С)
R
(мм)
R24
(мм)
S
(см)
15 8.12 Ю 1 50 км ясно -48.0 -50.6 74 -54 -54 опасность
обморожения
1045.9 957.0
18 8.12 Ю 1 50 км ясно -48.0 -50.6 74 -54 -54 опасность
обморожения
1046.5 957.5
21 8.12 Ю 1 50 км ясно -48.1 -50.6 75 -54 -54 опасность
обморожения
1046.0 957.1 -49.5 13
00 9.12 Ю 2 50 км 3/0
[Ci fib]
-48.5 -50.6 79 -59 -59 опасность
обморожения
1047.9 958.6
03 9.12 штиль 0 50 км 3/0
[Ci fib]
-48.5 -50.6 79 -49 -48 опасность
обморожения
1048.7 959.4
06 9.12 штиль 0 50 км ясно -48.5 -50.4 80 -49 -49 опасность
обморожения
1048.3 959.0
09 9.12 штиль 0 50 км ясно -48.5 -50.6 79 -49 -49 опасность
обморожения
1048.5 959.2 -48.5
12 9.12 Ю 1 50 км ясно -49.0 -51.8 72 -55 -55 опасность
обморожения
1049.2 959.6
15 9.12 штиль 0 50 км 3/0
[Ci fib]
-49.0 -51.8 72 -49 -49 опасность
обморожения
1048.5 959.0
18 9.12 штиль 0 50 км 3/0
[Ci fib]
-48.5 -50.6 79 -49 -49 опасность
обморожения
1049.0 959.6
21 9.12 штиль 0 50 км ясно -49.5 -51.8 77 -50 -50 опасность
обморожения
1049.8 960.0 -49.5 13
00 10.12 штиль 0 50 км 4/0
[Ac As]
-48.0 -50.6 74 -48 -48 опасность
обморожения
1049.9 960.6
03 10.12 штиль 0 50 км 6/0
[Ac As]
-49.5 -52.6 70 -50 -50 опасность
обморожения
1050.2 969.4
06 10.12 штиль 0 50 км ясно -49.0 -51.8 72 -49 -49 опасность
обморожения
1051.6 961.8
09 10.12 штиль 0 50 км ясно -49.0 -51.8 72 -49 -49 опасность
обморожения
1053.9 963.9 -47.5
12 10.12 штиль 0 50 км ясно -51.0 -53.1 78 -51 -51 опасность
обморожения
1055.5 964.6
15 10.12 штиль 0 50 км ясно -51.0 -53.1 78 -51 -51 опасность
обморожения
1056.0 965.1
18 10.12 штиль 0 50 км ясно -50.0 -53.1 70 -50 -50 опасность
обморожения
1056.5 965.9
21 10.12 Ю 1 50 км 8/0
[Ac As]
-48.0 -50.6 74 -54 -54 опасность
обморожения
1056.9 967.1 -51.0 13
00 11.12 штиль 0 50 км 9/0
[Ac As]
-47.0 -49.6 74 -47 -47 опасность
обморожения
1057.2 967.7
03 11.12 штиль 0 10 км слабый снег 10/0
[As trans]
-44.0 -47.0 72 -44 -44 опасность
обморожения
1054.8 966.6
06 11.12 штиль 0 10 км слабый снег 10/0
[As trans]
-43.5 -46.3 74 -44 -44 опасность
обморожения
1055.0 967.0
09 11.12 штиль 0 50 км {снег} 3/0
[Ac trans]
-45.0 -47.8 73 -45 -45 опасность
обморожения
1055.7 967.1 -43.5 0.3
12 11.12 штиль 0 50 км 10/0
[Cs]
-44.0 -47.0 72 -44 -44 опасность
обморожения
1053.8 965.7
15 11.12 штиль 0 10 км слабый снег 10/0
[As trans]
-41.5 -43.8 78 -42 -42 опасность
обморожения
1051.9 964.9
18 11.12 штиль 0 10 км слабый снег 10/0
[As trans]
-39.0 -41.2 79 -39 -39 опасность
обморожения
1050.9 964.8
21 11.12 штиль 0 50 км {снег} 10/0
[Cs]
-42.5 -45.0 76 -43 -43 опасность
обморожения
1051.3 964.0 -44.0 0.4 13
00 12.12 штиль 0 50 км {снег} 10/0
[Cs]
-42.0 -45.0 72 -42 -42 опасность
обморожения
1051.3 964.2
03 12.12 штиль 0 50 км 5/0
[Ci fib]
-43.0 -45.6 75 -43 -43 опасность
обморожения
1051.0 963.5
06 12.12 С 1 50 км 1/0
[Cs]
-42.1 -45.0 73 -48 -48 опасность
обморожения
1047.8 960.9
09 12.12 штиль 0 50 км 10/0
[As op]
-41.0 -43.8 74 -41 -41 опасность
обморожения
1050.1 963.4 -41.0
12 12.12 Ю 2 50 км 10/0
[As op]
-39.8 -42.8 73 -49 -49 опасность
обморожения
1049.6 963.3
15 12.12 Ю 2 50 км 10/0
[As op]
-38.2 -40.9 76 -47 -47 опасность
обморожения
1048.5 963.0
18 12.12 Ю 2 50 км 10/0
[As op]
-38.2 -40.9 76 -47 -47 опасность
обморожения
1048.5 963.0
00 13.12 Ю 3 50 км 10/0
[As op]
-37.5 -40.5 73 -49 -49 опасность
обморожения
1046.5 961.2
03 13.12 Ю 3 50 км слабый снег 10/0
[As op]
-37.2 -40.1 74 -48 -48 опасность
обморожения
1045.2 960.3
06 13.12 Ю 3 20 км слабый снег 10/0
[As op]
-36.8 -39.8 74 -48 -48 опасность
обморожения
1044.4 959.5
09 13.12 Ю 3 20 км слабый снег 10/0
[As op]
-36.3 -38.4 81 -47 -47 опасность
обморожения
1043.6 959.0 -36.3 0.2
12 13.12 Ю 3 20 км 10/0
[As op]
-35.4 -37.7 79 -46 -46 опасность
обморожения
1042.2 958.0
15 13.12 Ю 2 20 км {снег} 10/0
[As op]
-35.5 -38.9 71 -44 -44 опасность
обморожения
1041.2 957.1
18 13.12 Ю 3 50 км {снег} 10/0
[As op]
-35.5 -37.7 80 -46 -46 опасность
обморожения
1040.1 955.1
21 13.12 Ю 3 20 км слабый снег 10/0
[As op]
-35.0 -37.4 79 -46 -46 опасность
обморожения
1039.5 955.7 -36.3 0.5 13
00 14.12 В 2 50 км {снег} 10/0
[As op]
-36.7 -38.8 81 -45 -45 опасность
обморожения
1039.2 962.3
03 14.12 штиль 0 50 км ясно -38.2 -40.3 80 -38 -38 опасность
обморожения
1039.5 964.3
06 14.12 штиль 0 50 км 3/0
[Ci fib]
-41.2 -43.2 81 -41 -41 опасность
обморожения
1040.8 954.9
09 14.12 штиль 0 50 км ясно -45.1 -47.2 79 -45 -45 опасность
обморожения
1042.2 954.7 -36.6 0.0
12 14.12 штиль 0 50 км ясно -47.6 -50.0 76 -48 -48 опасность
обморожения
1042.5 954.1
15 14.12 штиль 0 50 км ясно -48.0 -50.0 80 -48 -48 опасность
обморожения
1041.4 952.9
18 14.12 штиль 0 50 км ясно -48.0 -50.0 80 -48 -48 опасность
обморожения
1038.9 950.6
21 14.12 штиль 0 50 км ясно -48.6 -51.2 74 -49 -49 опасность
обморожения
1036.5 948.2 -48.6 13
00 15.12 Ю 2 20 км слабый снег 10/0
[As op]
-39.6 -41.7 80 -49 -49 опасность
обморожения
1030.5 945.9
03 15.12 Ю 3 50 км {снег} 10/0
[Ac As]
-37.4 -40.1 76 -49 -49 опасность
обморожения
1028.0 944.3
06 15.12 штиль 0 50 км {снег} 10/0
[Ac As]
-36.2 -38.4 80 -36 -36 опасность
обморожения
1027.2 944.1
09 15.12 Ю 2 50 км 10/0
[Ac As]
-36.5 -45.0 41 -45 -45 опасность
обморожения
1026.9 943.6 -36.2 0.0
12 15.12 штиль 0 10 км слабый снег 10/0
[As op]
-34.8 -37.1 79 -35 -35 опасность
обморожения
1026.1 943.4

 

Местоположение метеостанции Юрты (Якутия, Россия): широта 64.05 долгота 141.80 высота над уровнем моря 590 м.

В архиве по умолчанию представлена погода в Юртах за последнюю неделю. Архивные данные за месяц целиком и за предыдущие месяцы, начиная с января 2011 года, Вы можете получить, выбрав интересующий диапазон дат из раскрывающегося списка и нажав кнопку "Ввод!".

Внимание! Время в таблицах - всемирное. Для получения местного времени необходимо прибавить поправку, которая в Юртах равна 10 ч.

Смотрите также архив погоды в соседних городах и на ближайших метеорологических станциях:

Погода в Агаякане (Якутия, Россия) (80 км)
Погода в Усть-Нере (Якутия, Россия) (82 км)
Погода в Оймяконе (Якутия, Россия) (110 км)
Погода в Восточной (Якутия, Россия) (142 км)
Погода в Делянкире (Якутия, Россия) (187 км)
Погода в Усть-Моме (Якутия, Россия) (275 км)
Погода в Теплом Ключе (Якутия, Россия) (286 км)
Погода в Томпо (Якутия, Россия) (293 км)
Погода в Иэме (Якутия, Россия) (317 км)
Погода в Сусумане (Магаданская область, Россия) (344 км)

Пояснения к столбцам:

Ветер - указаны скорость ветра в м/с - средняя за 10 мин, порывы в срок и между сроками (в фигурных скобках) и направление, откуда дует ветер: С - северный, СВ - северо-восточный, В - восточный, ЮВ - юго-восточный, Ю - южный, ЮЗ - юго-западный, З - западный, СЗ - северо-западный.
Видимость - горизонтальная дальность видимости в метрах или километрах. При видимости от 1 до 10 км при отсутствии осадков обычно наблюдается дымка, при ухудшении видимости до 1 км и менее - туман. В сухую погоду видимость может ухудшаться дымом, пылью или мглою.
Явления - указаны атмосферные явления, наблюдавшиеся в срок или в последний час перед сроком; фигурными скобками обозначены явления, наблюдавшиеся между сроками (за 1-3 часа до срока); квадратными скобками обозначены град или гололедные отложения с указанием их диаметра в мм.
Облачность - указаны через наклонную черту общая и нижняя облачность в баллах и высота нижней границы облаков в метрах; квадратными скобками обозначены формы облаков: Ci - перистые, Cs - перисто-слоистые, Cc - перисто-кучевые, Ac - высококучевые, As - высокослоистые, Sc - слоисто-кучевые, Ns - слоисто-дождевые, Cu - кучевые, Cb - кучево-дождевые. Подробнее классификацию облаков см. в Атласе облаков (PDF).
T - Температура воздуха - температура, измеренная на высоте 2 м над землей.
Td - Температура точки росы - температура, при понижении до которой содержащийся в воздухе водяной пар достигнет насыщения.
f - Относительная влажность воздуха - влажноcть воздуха, измеренная на высоте 2 м над землей.
Te - Эффективная температура - температура, которую ощущает одетый по сезону человек в тени. Характеристика душности погоды. При расчете учитывается влияние влажности воздуха и скорости ветра на теплоощущения человека.
Tes - Эффективная температура на солнце - температура, которую ощущает человек, с поправкой на солнечный нагрев. Характеристика знойности погоды. Зависит от высоты солнца над горизонтом, облачности и скорости ветра. Ночью, в пасмурную погоду, а также при ветре 12 м/с и более поправка равна нулю.
P - Атмосферное давление - приведенное к уровню моря атмосферное давление.
Po - Атмосферное давление - измеренное на уровне метеостанции атмосферное давление.
Tmin - Минимальная температура - минимум температуры воздуха на высоте 2 м над землей.
Tmax - Максимальная температура - максимум температуры воздуха на высоте 2 м над землей.
R - Количество осадков - Количество выпавших осадков за период времени, мм. При наведении курсора мыши на число - период времени, за который выпало указанное количество осадков.
R24 - Количество осадков - Количество выпавших осадков за 24 часа, мм.
S - Снежный покров - Высота снежного покрова, см. При наведении курсора мыши на число - состояние снежного покрова и степень покрытия местности в баллах.